This is the latest recevied weather packets stored in our database for station/object IZ8GMP-13. If no packets are shown the sender has not sent any weather packets the latest 10 day(s).
| Time | Temp. | Humidity | Pressure | Rain* | Wind** | Luminosity | Snow |
|---|---|---|---|---|---|---|---|
| 1777275075 | 17.22° C | 67% | 1018.7 hPa | - | - | - | - |
| 1777273871 | 17.22° C | 67% | 1018.8 hPa | - | - | - | - |
| 1777272668 | 17.78° C | 65% | 1018.7 hPa | - | - | - | - |
| 1777271464 | 17.22° C | 65% | 1018.7 hPa | - | - | - | - |
| 1777270261 | 17.78° C | 54% | 1018.6 hPa | - | - | - | - |
| 1777269057 | 17.22° C | 36% | 1018.6 hPa | - | - | - | - |
| 1777266650 | 16.67° C | 39% | 1018.5 hPa | - | - | - | - |
| 1777265447 | 16.67° C | 39% | 1018.3 hPa | - | - | - | - |
| 1777264243 | 16.11° C | 36% | 1018.2 hPa | - | - | - | - |
| 1777263040 | 16.11° C | 41% | 1018 hPa | - | - | - | - |
| 1777261836 | 16.11° C | 36% | 1017.9 hPa | - | - | - | - |
| 1777260633 | 16.11° C | 36% | 1017.8 hPa | - | - | - | - |
| 1777259430 | 15.56° C | 44% | 1018 hPa | - | - | - | - |
| 1777258226 | 16.11° C | 43% | 1018 hPa | - | - | - | - |
| 1777257023 | 17.22° C | 33% | 1018 hPa | - | - | - | - |
| 1777255819 | 17.22° C | 31% | 1018 hPa | - | - | - | - |
| 1777254616 | 17.22° C | 32% | 1018.1 hPa | - | - | - | - |
| 1777253412 | 17.22° C | 35% | 1018 hPa | - | - | - | - |
| 1777252209 | 17.22° C | 36% | 1018 hPa | - | - | - | - |
| 1777251005 | 17.22° C | 38% | 1018.2 hPa | - | - | - | - |
| 1777249802 | 17.22° C | 37% | 1018.3 hPa | - | - | - | - |
| 1777248598 | 16.67° C | 36% | 1018.5 hPa | - | - | - | - |
| 1777247395 | 16.11° C | 37% | 1018.6 hPa | - | - | - | - |
| 1777246191 | 16.11° C | 41% | 1018.8 hPa | - | - | - | - |
| 1777244988 | 15.56° C | 47% | 1019 hPa | - | - | - | - |
* Rain since midnight (hover to see other rain measurements)
** Current wind speed in m/s (hover to see current wind gust speed)